Regional Weather Roundup
Issued by NWS

Home | Current Version | Previous Version | Graphics & Text | Print | Product List | Glossary On
Versions: 1 2 3 4 5 6 7 8 9 10 11 12 13 14 15 16 17 18 19 20 21 22 23 24 25 26 27 28 29 30 31 32 33 34 35 36 37 38 39 40 41 42 43 44 45 46 47 48 49 50
581
ASUS43 KMPX 080801
RWRMN
WEATHER ROUNDUP FOR MINNESOTA
NATIONAL WEATHER SERVICE TWIN CITIES/CHANHASSEN MN
200 AM CST MON FEB 08 2016


NOTE: "FAIR" INDICATES FEW OR NO CLOUDS BELOW 12,000 FEET WITH NO
SIGNIFICANT WEATHER AND/OR OBSTRUCTIONS TO VISIBILITY. N/A MEANS
CURRENT SKY AND/OR WEATHER CONDITIONS ARE NOT AVAILABLE.

MNZ060>063-068>070-080900-
   Twin Cities Metro

CITY           SKY/WX    TMP DP  RH WIND       PRES   REMARKS
TWIN CITIES    LGT SNOW  15   9  76 NW16      29.79R WCI  -1
ST PAUL        MIX PCPN  16   8  71 NW21      29.79R WCI  -1
CRYSTAL        FLURRIES  15   8  73 NW16      29.78S WCI  -1
BLAINE         FLURRIES  16  10  79 NW15      29.77S WCI   1
LAKEVILLE      FLURRIES  12   9  85 NW17      29.77R WCI  -5
EDEN PRAIRIE   LGT SNOW  15   9  76 NW13      29.78S WCI   1
SOUTH ST PAUL  CLOUDY    17   9  71 NW15G21   29.78R WCI   2
LAKE ELMO      FLURRIES  18  12  79 NW15G21   29.77R WCI   3
$$
MNZ001>005-007-008-013>017-022>024-027-028-080900-
   Northwest Minnesota

CITY           SKY/WX    TMP DP  RH WIND       PRES   REMARKS
BEMIDJI        LGT SNOW   4  -1  81 NW15      29.88S WCI -14
HALLOCK        CLOUDY    10   7  85 N23G29    30.07R FOG     WCI -10
ROSEAU         PTCLDY     7   0  72 NW22G28   29.98R HAZE    WCI -14
WARROAD        CLOUDY     3   0  85 NW18G28   29.96R HAZE    WCI -17
CROOKSTON      SNOW      10   9  92 N29G37    30.05R VSB 1/2 WCI -11
FOSSTON        LGT SNOW   3   1  92 NW23G30   29.97R WCI -19
DETROIT LAKES  LGT SNOW   9   5  85 N23G30    29.94R WCI -12
MOORHEAD       MIX PCPN  12  10  92 N22       30.04R WCI  -7
PARK RAPIDS    CLOUDY     7   0  73 NW17G24   29.86S WCI -12
MAHNOMEN       LGT SNOW   7   3  83 N18       29.96R WCI -12
$$
MNZ006-009>011-018-025>026-080900-
   North Central Minnesota

CITY           SKY/WX    TMP DP  RH WIND       PRES   REMARKS
BAUDETTE       LGT SNOW   4  -2  76 NW18G26   29.90R WCI -16
FLAG ISLAND    FLURRIES   3  -2  78 NW23G29   29.93R WCI -19
INTL FALLS     LGT SNOW   7   2  80 NW16      29.83R WCI -11
WASKISH        CLOUDY     5   0  78 NW15      29.90R WCI -13
LONGVILLE      CLOUDY     7   1  78 NW10G20   29.84R WCI  -8
GRAND RAPIDS   CLOUDY     7   1  78 NW23      29.78R WCI -14
CRANE LAKE     CLOUDY    12  10  92 NW5       29.79R VSB 1/2 WCI   4
ORR            LGT SNOW   7   1  78 NW12G22   29.75R WCI  -9
COOK           FLURRIES   9   5  85 NW14      29.77R WCI  -8
WALKER         FLURRIES   5  -1  76 NW16G23   29.86S WCI -14
$$
MNZ012-019>021-037-080900-
   Northeast Minnesota

CITY           SKY/WX    TMP DP  RH WIND       PRES   REMARKS
DULUTH         LGT SNOW  12   7  80 NW14G23   29.67S BLWGSNOWWCI  -3
ELY            LGT SNOW  12  10  92 N8G17     29.70R WCI   1
HIBBING        MIX PCPN   8   4  83 NW16      29.75R FOG     WCI -10
EVELETH        FLURRIES  12   9  85 NW10G22   29.74R WCI  -1
DULUTH HARBOR  CLOUDY    18  12  79 NW20G25   29.72S WCI   1
TWO HARBORS    FLURRIES  21  16  79 NW9G22    29.65R WCI  11
SILVER BAY     FLURRIES  21  16  79 N7        29.63S WCI  13
GRAND MARAIS     N/A     15   8  73 VRB6      29.66S WCI   6
G MARAIS ARPRT LGT SNOW   7   1  78 NW14G21   29.58S WCI -10
$$
MNZ029>031-032-039>041-046>048-054>057-064-080900-
   West Central Minnesota

CITY           SKY/WX    TMP DP  RH WIND       PRES   REMARKS
FERGUS FALLS   LGT SNOW  10   7  85 N26G39    29.99S WCI -11
WHEATON        LGT SNOW  16  12  86 NW24G31   30.03R WCI  -3
MORRIS         HVY SNOW  12   9  85 N35G44    29.93S VSB<1/4 WCI -10
ALEXANDRIA     LGT SNOW   9   3  77 NW18G30   29.89R WCI -10
ELBOW LAKE     LGT SNOW  10   6  83 N24G33    29.95S WCI -10
WADENA         LGT SNOW   7   1  78 NW20G29   29.87F WCI -13
GLENWOOD       LGT SNOW   9   5  85 NW24G33   29.89R VSB 1   WCI -12
APPLETON       LGT SNOW  16  10  79 NW30G39   29.96S VSB 1   WCI  -4
BENSON         LGT SNOW  12   9  85 N31G38    29.92S WCI -10
ORTONVILLE     LGT SNOW  16  10  79 NW26G40   29.98S WCI  -3
MADISON        LGT SNOW  18  12  79 N32G47    29.98S VSB 3/4 WCI  -3
WILLMAR        LGT SNOW  12   9  85 NW28G33   29.90R WCI  -9
$$
MNZ033>034-036-042>043-049>051-058-059-080900-
   Central Minnesota

CITY           SKY/WX    TMP DP  RH WIND       PRES   REMARKS
ST CLOUD       CLOUDY    12   4  70 NW15G28   29.82R WCI  -4
SAUK CENTRE    CLOUDY    10   5  80 NW18G28   29.87R FOG     WCI  -9
PAYNESVILLE    LGT SNOW  10   6  81 NW21G33   29.87R WCI  -9
AITKIN         MIX PCPN  12   1  62 NW10G22   29.79S WCI  -1
PINE RIVER     CLOUDY     7   1  78 NW10G23   29.88R WCI  -8
BRAINERD       CLOUDY     9   2  73 NW23G29   29.83R WCI -11
STAPLES        CLOUDY     7   0  72 NW16G24   29.86S WCI -11
LONG PRAIRIE   LGT SNOW   9   5  85 NW21G26   29.85S WCI -11
LITTLE FALLS   CLOUDY    12   3  67 NW13G22     N/A  WCI  -3
LITCHFIELD     CLOUDY    12   9  85 NW22G33   29.85R FOG     WCI  -7
BUFFALO        CLOUDY    14   7  73 NW15      29.82S WCI  -1
MAPLE LAKE     FLURRIES  14   8  76 NW17G25   29.82S WCI  -3
$$
MNZ037-044-045-052-053-080900-
   East Central Minnesota

CITY           SKY/WX    TMP DP  RH WIND       PRES   REMARKS
PRINCETON      FLURRIES  16   7  67 NW13G22   29.79S WCI   2
MORA           LGT SNOW  12   9  85 NW18G26   29.79S WCI  -5
CAMBRIDGE      LGT SNOW  16   9  73 NW12G21   29.76F WCI   3
RUSH CITY      CLOUDY    14   9  80 NW12G20   29.77R WCI   1
MOOSE LAKE     LGT SNOW  14   9  79 NW8G18    29.73S WCI   3
HINCKLEY       LGT SNOW  14  10  85 NW15G23   29.76R WCI  -1
CLOQUET        LGT SNOW  10   7  85 NW13G23   29.71R WCI  -5
MCGREGOR       CLOUDY    12   7  79 NW14G22   29.78R WCI  -3
$$
MNZ071>073-080-081-089-090-097-098-080900-
   Southwest Minnesota

CITY           SKY/WX    TMP DP  RH WIND       PRES   REMARKS
MONTEVIDEO     LGT SNOW  14  12  92 N28G41    29.96R WCI  -6
GRANITE FALLS  LGT SNOW  16  12  84 NW25G38   29.95S VSB 1   WCI  -3
CANBY          LGT SNOW  20  17  86 NW23G32   29.98S WCI   4
MARSHALL       LGT SNOW  15  11  83 N35G46    29.92S VSB 3/4 WCI  -7
REDWOOD FALLS  LGT SNOW  13   9  84 NW28G38   29.90R FOG     WCI  -8
OLIVIA         LGT SNOW  16  10  79 NW28G35   29.88S WCI  -4
PIPESTONE      PTCLDY    19  10  68 N31G40    29.92S WCI   0
WINDOM         HVY SNOW  14  10  85 NW44G55   29.85S VSB<1/4 WCI -10
WORTHINGTON    CLOUDY   N/A N/A N/A N32G43    29.90R VSB 1
JACKSON        CLOUDY    16  10  79 NW44G52   29.84F WCI  -8
TRACY          LGT SNOW  16  12  86 NW28G43   29.91S VSB 1   WCI  -4
SLAYTON        LGT SNOW  15  14  95 NW29G37   29.90R WCI  -5
$$
MNZ065>067-074>077-082>085-091>093-080900-
   South Central Minnesota

CITY           SKY/WX    TMP DP  RH WIND       PRES   REMARKS
MANKATO        CLOUDY   N/A N/A N/A NW29G37   29.80S
NEW ULM        LGT SNOW  12   9  85 NW26G43   29.83R WCI  -8
ST JAMES       LGT SNOW  14  12  92 NW30G43   29.86S VSB 3/4 WCI  -7
FAIRMONT       CLOUDY   N/A N/A N/A NW32G41   29.81S VSB 1/2
GLENCOE        LGT SNOW  15  10  81 NW23G30   29.82S WCI  -4
FARIBAULT      LGT SNOW  14   9  79 NW16G24   29.78S WCI  -2
OWATONNA       LGT SNOW  14   9  79 NW25      29.77R WCI  -5
WASECA         LGT SNOW  14  10  85 NW24      29.79S WCI  -5
ALBERT LEA     CLOUDY    14   9  79 NW18G31   29.75S WCI  -3
$$
MNZ078>079-086>088-094>096-080900-
   Southeast Minnesota

CITY           SKY/WX    TMP DP  RH WIND       PRES   REMARKS
ROCHESTER      LGT SNOW  15  10  80 NW20      29.71R WCI  -2
RED WING       FLURRIES  18   9  68 NW9G17    29.74S WCI   6
STANTON        FLURRIES  17  10  74 NW16      29.76R WCI   1
DODGE CENTER   LGT SNOW  14  10  85 NW16      29.72R WCI  -2
WINONA         CLOUDY    21  14  73 NW12      29.73R WCI   9
AUSTIN         CLOUDY    14   9  79 NW21G28   29.74R WCI  -4
PRESTON        FLURRIES  15   9  76 NW15      29.70S WCI   0
$$
ABBREVIATIONS USED IN REMARKS
   TC - TEMPERATURES IN CELSIUS
  WCI - WIND CHILL INDEX
   HX - HEAT INDEX
  VSB - VISIBILITY
$$




USA.gov is the U.S. government's official web portal to all federal, state and local government web resources and services.